TimePDT,TemperatureF,Dew PointF,Humidity,Sea Level PressureIn,VisibilityMPH,Wind Direction,Wind SpeedMPH,Gust SpeedMPH,PrecipitationIn,Events,Conditions,WindDirDegrees,DateUTC
12:53 AM,53.1,43.0,69,29.93,10.0,WSW,3.5,-,0.00,Rain,Light Rain,240,2013-05-16 07:53:00
1:53 AM,53.1,43.0,69,29.93,10.0,Calm,Calm,-,0.00,Rain,Light Rain,0,2013-05-16 08:53:00
2:53 AM,51.1,43.0,74,29.92,10.0,Calm,Calm,-,0.01,,Overcast,0,2013-05-16 09:53:00
3:53 AM,50.0,45.0,83,29.92,10.0,SSE,6.9,-,0.00,,Overcast,160,2013-05-16 10:53:00
4:53 AM,50.0,45.0,83,29.93,10.0,Calm,Calm,-,N/A,,Overcast,0,2013-05-16 11:53:00
5:53 AM,50.0,45.0,83,29.93,10.0,Calm,Calm,-,N/A,,Overcast,0,2013-05-16 12:53:00
6:24 AM,48.2,44.6,87,29.94,10.0,SSE,3.5,-,N/A,,Overcast,150,2013-05-16 13:24:00
6:53 AM,50.0,44.1,80,29.94,10.0,SSW,4.6,-,N/A,,Mostly Cloudy,200,2013-05-16 13:53:00
7:15 AM,50.0,44.6,82,29.95,10.0,South,3.5,-,N/A,,Overcast,170,2013-05-16 14:15:00
7:53 AM,50.0,44.1,80,29.95,10.0,SSE,3.5,-,N/A,,Overcast,150,2013-05-16 14:53:00
8:53 AM,51.1,44.1,77,29.95,10.0,Calm,Calm,-,N/A,,Overcast,0,2013-05-16 15:53:00
9:53 AM,52.0,43.0,71,29.95,10.0,SE,4.6,-,N/A,,Overcast,130,2013-05-16 16:53:00
10:23 AM,53.6,42.8,67,29.95,10.0,SE,4.6,-,N/A,,Overcast,140,2013-05-16 17:23:00
10:53 AM,54.0,43.0,66,29.95,10.0,South,4.6,-,N/A,,Overcast,180,2013-05-16 17:53:00
11:53 AM,57.0,43.0,59,29.93,10.0,Calm,Calm,-,N/A,,Mostly Cloudy,0,2013-05-16 18:53:00
12:53 PM,57.9,42.1,56,29.92,10.0,SE,5.8,-,N/A,,Mostly Cloudy,130,2013-05-16 19:53:00
1:53 PM,57.9,42.1,56,29.91,10.0,SSW,3.5,-,N/A,,Mostly Cloudy,210,2013-05-16 20:53:00
2:53 PM,60.1,41.0,49,29.90,10.0,South,4.6,-,N/A,,Mostly Cloudy,170,2013-05-16 21:53:00
3:53 PM,60.1,41.0,49,29.89,10.0,ESE,3.5,-,N/A,,Mostly Cloudy,120,2013-05-16 22:53:00
4:53 PM,61.0,42.1,50,29.88,10.0,ESE,6.9,-,N/A,,Mostly Cloudy,120,2013-05-16 23:53:00
5:53 PM,60.1,43.0,53,29.87,10.0,ESE,4.6,-,N/A,,Mostly Cloudy,110,2013-05-17 00:53:00
6:53 PM,61.0,41.0,48,29.86,10.0,Calm,Calm,-,N/A,,Mostly Cloudy,0,2013-05-17 01:53:00
7:53 PM,60.1,42.1,51,29.87,10.0,ESE,3.5,-,N/A,,Mostly Cloudy,110,2013-05-17 02:53:00
8:53 PM,57.0,43.0,59,29.88,10.0,Calm,Calm,-,N/A,,Scattered Clouds,0,2013-05-17 03:53:00
9:53 PM,54.0,43.0,66,29.89,10.0,North,4.6,-,N/A,,Partly Cloudy,10,2013-05-17 04:53:00
10:53 PM,52.0,44.1,74,29.89,10.0,North,3.5,-,N/A,,Partly Cloudy,10,2013-05-17 05:53:00
11:53 PM,52.0,44.1,74,29.88,10.0,NE,4.6,-,N/A,,Partly Cloudy,40,2013-05-17 06:53:00